www.pogodaiklimat.ru
ПОГОДА в Вашингтоне
Время
и дата
16:56 24.09
17:56 24.09
18:56 24.09
19:56 24.09
20:56 24.09
21:56 24.09
22:56 24.09
23:56 24.09
00:56 25.09
01:56 25.09
02:56 25.09
03:56 25.09
04:20 25.09
04:56 25.09
05:56 25.09
06:56 25.09
07:56 25.09
08:56 25.09
09:17 25.09
09:47 25.09
09:56 25.09
10:53 25.09
10:56 25.09
11:53 25.09
11:56 25.09
12:20 25.09
12:56 25.09
13:56 25.09
14:56 25.09
15:56 25.09
16:56 25.09
17:56 25.09
18:56 25.09
19:56 25.09
20:56 25.09
21:22 25.09
21:36 25.09
21:56 25.09
22:42 25.09
22:56 25.09
23:47 25.09
23:56 25.09
00:19 26.09
00:45 26.09
00:56 26.09
01:56 26.09
02:56 26.09
03:56 26.09
Ветер
(напр.,м/с)
Видим. Явления Облачность Т
(С)
Тd
(С)
f
(%)
Тe
(С)
Тes
(С)
Комфортность P
(гПа)
Po
(гПа)
Тmin
(С)
Tmax
(С)
R
(мм)
R24
(мм)
S
(см)
ЮЗ 2 16 км 10/10 1800 м +17.8 +9.4 58 +18 +18 1014.6 972.1
Ю 2 16 км 10/10 1800 м +17.2 +11.7 70 +18 +18 1014.3 971.4
штиль 0 16 км 10/10 1800 м +16.1 +12.2 78 +16 +16 1014.0 971.4 +16.1 +19.4
штиль 0 16 км 10/8 1800 m
[Ac]
+14.4 +12.2 87 +14 +14 1013.7 971.1
Ю 2 16 км ясно +12.8 +11.7 93 +12 +12 1013.3 970.8
Ю 2 16 км 10/10 1800 м +12.8 +10.0 83 +12 +12 1012.9 970.5
Ю 2 16 км 8/8 1410 м +12.8 +10.6 86 +12 +12 1011.9 969.5
штиль 0 16 км ясно +12.8 +10.0 83 +12 +12 1011.3 968.8
ЮЗ 2 16 км 5/0 3000 m
[Ac]
+12.8 +10.6 86 +12 +12 1010.8 968.5 +12.2 +16.1
нст 2 16 км ясно +14.4 +11.7 84 +14 +14 1009.8 967.5
Ю 3 16 км ясно +15.0 +12.8 87 +14 +14 1009.0 966.9
Ю 4 16 км гроза 2/2 1950 м +15.6 +13.3 86 +15 +15 1008.0 965.9
Ю 5 16 км слабый дождь 8/8 1440 м +16.0 +13.0 82 +15 +15 965.9
ЮЗ 3 16 км 2/2 1950 м +15.0 +13.9 93 +14 +14 1007.9 965.6
ЮЗ 2 16 км ясно +15.0 +13.9 93 +15 +15 1007.8 965.6
Ю 3 16 км слабый дождь 10/0 2700 m
[Ac]
+15.0 +13.9 93 +14 +14 1007.2 964.9 +12.2 +15.6 0.3 0.3
ЮЗ 4 16 км 10/0 2250 m
[Ac]
+15.6 +13.9 90 +15 +15 1007.7 965.6
Ю 3 13 км слабый дождь 10/2 1650 m
[Ac]
+14.4 +14.4 100 1006.3
ЮЗ 6
{10}
13 км гроза с сильным дождем 10/0 2400 m
[Ac]
+14.0 +14.0 100 +12 +12 964.6
Ю 5
{8}
16 км слабый дождь 10/2 990 m
[Ac]
+14.0 +13.0 94 +12 +13 964.0
Ю 5 16 км слабый дождь 10/2 1950 m
[Ac]
+15.0 +13.9 93 +13 +14 1006.1 964.0 4.1
ЮЗ 5
{9}
16 км 8/8 450 m
[Ac]
+17.0 +15.0 88 +16 +17 964.0
ЮЗ 6
{9}
16 км 8/8 450 m
[Ac]
+17.2 +15.0 87 +16 +17 1006.2 964.0
ЮЗ 7
{11}
16 км 5/5 630 м +19.0 +14.0 73 +20 +21 963.3
ЮЗ 6
{10}
16 км 5/5 630 м +19.4 +14.4 73 +21 +23 комфорт 1005.2 963.3
ЮЗ 8
{11}
16 км 8/8 840 м +20.0 +14.0 68 +21 +22 комфорт 963.3
ЮЗ 7
{11}
16 км 10/10 870 м +20.6 +13.9 65 +23 +23 комфорт 1004.6 962.7 +14.4 +21.1 4.1
ЮЗ 6
{12}
16 км 8/8 1110 м +21.1 +12.8 59 +23 +24 комфорт 1003.8 962.0
ЮЗ 4 14 км слабый дождь 8/8 1290 m
[Ac]
+17.2 +14.4 84 +17 +18 1004.1 962.0
З 9
{11}
16 км 10/2 1230 m
[Ac]
+19.4 +11.7 61 +20 +20 1004.5 962.7 0.3
З 7
{9}
16 км 2/2 1950 м +18.9 +11.7 63 +19 +20 1005.4 963.3
З 4 16 км 8/8 1800 m
[Ac]
+17.8 +11.1 65 +18 +18 1006.2 964.0
З 6 16 км 8/5 1320 m
[Ac]
+17.2 +11.1 67 +16 +16 1006.8 964.6 +16.7 +21.1 0.3
З 3 16 км 5/2 1950 m
[Ac]
+14.4 +12.8 90 +13 +13 1007.7 965.6
ЮЗ 3 16 км 5/2 930 m
[Ac]
+14.4 +12.2 87 +13 +13 1008.1 965.6
ЮЗ 2 16 км 8/8 810 м +15.0 +12.0 82 +15 +15 965.9
ЮЗ 4 16 км 10/10 720 м +15.0 +12.0 82 +14 +14 965.9
ЮЗ 3 16 км 8/8 720 м +14.4 +12.2 87 +13 +13 1008.2 965.9 0.3
ЮЗ 2 16 км 10/8 540 m
[Ac]
+14.0 +12.0 88 +13 +13 965.9
ЮЗ 3 16 км 10/10 540 м +14.4 +12.2 87 +13 +13 1008.2 965.9
ЮЗ 3 16 км 8/8 660 м +14.0 +12.0 88 +13 +13 965.9
ЮЗ 3 16 км 8/8 720 м +14.4 +12.2 87 +13 +13 1007.9 965.9
ЮЗ 4 16 км 8/8 660 м +14.0 +12.0 88 +12 +12 965.9
ЮЗ 3 16 км 8/5 660 m
[Ac]
+14.0 +12.0 88 +13 +13 965.6
ЮЗ 3 16 км 5/0 2250 m
[Ac]
+13.3 +11.7 90 +12 +12 1007.7 965.6 +13.3 +17.2 0.3
ЮЗ 4 16 км 10/10 990 м +13.9 +11.7 87 +12 +12 1007.4 965.3
ЮЗ 4 16 км 8/0 2400 m
[Ac]
+13.3 +11.7 90 +12 +12 1007.0 964.9
ЮЗ 4 16 км 8/8 1110 м +13.3 +11.1 87 +12 +12 1006.4 964.3
Местоположение метеостанции Washington County Airport: широта 40.1333 долгота -80.2833 высота над уровнем моря 361 м.
В архиве по умолчанию представлена погода в Вашингтоне за последние 1-2 суток. Обновление информации о фактической погоде в базе происходит ежечасно! Архивные данные за месяц целиком и за предыдущие месяцы Вы можете получить, выбрав интересующий диапазон дат из раскрывающегося списка и нажав кнопку "Ввод!".
Внимание! Архив погоды МЕТАР в базе сайта по станциям, не включенным в климатический монитор, хранится не более 60 дней. Нет смысла пытаться выбрать более раннюю дату.
*Определитесь, кто Вы:
Внимание! Время в таблицах - местное (без учета летнего времени). Для получения всемирного времени необходимо вычесть поправку, которая равна -5 ч.
Смотрите также архив погоды в соседних городах и на ближайших метеорологических станциях:
Партнеры нашего сайта:      
Пояснения к столбцам:
  • Ветер - указаны скорость ветра в м/с - средняя за 10 мин, порывы в срок и между сроками (в фигурных скобках) и направление, откуда дует ветер: С - северный,
  • СВ - северо-восточный, В - восточный, ЮВ - юго-восточный, Ю - южный, ЮЗ - юго-западный, З - западный, СЗ - северо-западный.
  • Видимость - горизонтальная дальность видимости в метрах или километрах. При видимости от 1 до 10 км при отсутствии осадков обычно наблюдается дымка, при ухудшении видимости до 1 км и менее - туман. В сухую погоду видимость может ухудшаться дымом, пылью или мглою.
  • Явления - указаны атмосферные явления, наблюдавшиеся в срок или в последний час перед сроком; фигурными скобками обозначены явления, наблюдавшиеся между сроками (за 1-3 часа до срока); квадратными скобками обозначены град или гололедные отложения с указанием их диаметра в мм.
  • Облачность - указаны через наклонную черту общая и нижняя облачность в баллах и высота нижней границы облаков в метрах; квадратными скобками обозначены формы облаков: Ci - перистые, Cs - перисто-слоистые, Cc - перисто-кучевые, Ac - высококучевые, As - высокослоистые, Sc - слоисто-кучевые, Ns - слоисто-дождевые, Cu - кучевые, Cb - кучево-дождевые. Подробнее классификацию облаков см. в Атласе облаков (PDF).
  • T - Температура воздуха - температура, измеренная на высоте 2 м над землей.
  • Td - Температура точки росы - температура, при понижении до которой содержащийся в воздухе водяной пар достигнет насыщения.
  • f - Относительная влажность воздуха - влажноcть воздуха, измеренная на высоте 2 м над землей.
  • Te - Эффективная температура - температура, которую ощущает одетый по сезону человек в тени. Характеристика душности погоды. При расчете учитывается влияние влажности воздуха и скорости ветра на теплоощущения человека.
  • Tes - Эффективная температура на солнце - температура, которую ощущает человек, с поправкой на солнечный нагрев. Характеристика знойности погоды. Зависит от высоты солнца над горизонтом, облачности и скорости ветра. Ночью, в пасмурную погоду, а также при ветре 12 м/с и более поправка равна нулю.
  • P - Атмосферное давление - приведенное к уровню моря атмосферное давление.
  • Po - Атмосферное давление - измеренное на уровне метеостанции атмосферное давление.
  • Tmin - Минимальная температура - минимум температуры воздуха на высоте 2 м над землей.
  • Tmax - Максимальная температура - максимум температуры воздуха на высоте 2 м над землей.
  • R - Количество осадков - Количество выпавших осадков за период времени, мм. При наведении курсора мыши на число - период времени, за который выпало указанное количество осадков.
  • R24 - Количество осадков - Количество выпавших осадков за 24 часа, мм.
  • S - Снежный покров - Высота снежного покрова, см. При наведении курсора мыши на число - состояние снежного покрова и степень покрытия местности в баллах.